Temp
-2 -2 -2 -2 -2 -2 -2 -2 -1 -1 -1 -0 0 1 0 1 2 2 4 5 4 7 7 6 7 8 9 11 11 9 10 9 11 11 11 10 10 9 8 6 7 8 9 7 8 8 6 8 9 10 10 10 8 8
-2 -2 -2 -2 -2 -2 -2 -2 -2 -1 -1 -1 -0 1 0 1 2 2 4 5 5 4 6 7 8 8 9 9 9 8 10 10 11 11 11 10 9 9 9 8 8 7 6 7 8 8 8 8 9 9 8 8 8 9
-2 -2 -2 -2 -2 -2 -2 -2 -2 -1 -1 -1 -0 0 0 1 2 2 4 5 5 6 7 7 7 8 9 10 10 11 8 8 7 8 10 10 9 10 9 8 6 5 6 8 9 9 9 8 8 8 7 8 8 9
-2 -3 -2 -2 -2 -2 -3 -2 -2 -1 -1 -1 -1 -0 0 1 2 2 4 4 5 6 10 7 7 8 9 10 10 10 11 9 8 8 9 10 9 7 8 8 7 7 7 9 10 9 8 8 6 6 7 8 9 8
-3 -3 -3 -3 -2 -3 -3 -2 -2 -2 -2 -1 -1 -0 0 1 2 2 4 5 5 5 10 8 6 7 9 9 10 11 10 8 9 9 10 8 6 7 6 7 6 7 8 9 9 8 9 6 5 7 8 8 8 8
-3 -3 -3 -3 -3 -3 -3 -2 -2 -2 -2 -2 -2 -1 -0 1 2 3 4 6 6 6 8 10 6 5 7 8 9 8 7 7 7 8 7 6 5 8 9 8 8 7 6 8 8 7 5 5 6 6 7 7 6 6
-3 -3 -3 -3 -3 -3 -3 -2 -2 -2 -2 -3 -3 -1 -0 1 2 3 6 6 7 5 7 9 9 7 6 7 7 7 8 7 8 7 7 8 7 7 10 9 7 7 6 6 6 6 7 7 6 6 6 6 5 5
-3 -3 -3 -3 -3 -3 -3 -2 -2 -3 -3 -4 -2 -1 0 1 2 4 6 7 7 6 7 9 8 8 7 8 9 7 8 8 6 7 6 9 6 8 9 8 7 6 6 6 6 6 7 6 6 5 5 5 4 4
-3 -3 -3 -3 -3 -3 -3 -3 -3 -3 -4 -3 -2 -0 0 1 3 5 6 7 7 7 8 9 9 9 7 7 8 8 8 10 6 9 8 8 10 10 9 8 7 6 7 6 6 5 5 5 5 4 4 4 4 3
-3 -3 -3 -3 -3 -3 -3 -3 -3 -4 -4 -2 -2 -1 2 4 5 5 6 7 6 7 7 9 8 9 9 9 9 9 8 10 10 9 6 10 10 6 8 7 7 7 6 6 6 6 5 5 3 3 4 4 3 3
-3 -3 -3 -3 -3 -3 -3 -3 -4 -4 -3 -2 -1 1 4 5 5 6 7 7 7 8 8 7 9 9 7 11 10 8 10 10 10 9 10 10 9 7 6 6 6 6 6 6 6 6 5 4 3 3 3 2 2 3
-4 -4 -4 -3 -3 -3 -3 -4 -4 -4 -3 -1 0 2 3 4 5 5 7 7 9 11 6 8 8 9 7 7 10 7 10 8 10 7 9 10 10 7 6 5 5 5 5 5 5 4 4 3 3 3 2 3 3 3
-4 -4 -3 -3 -4 -4 -4 -4 -4 -1 -1 -1 0 2 3 4 4 7 4 9 9 8 7 6 8 8 7 8 8 10 10 9 7 9 10 10 8 6 6 5 5 5 4 4 3 3 3 3 3 3 3 3 3 4
-4 -4 -4 -4 -4 -4 -4 -3 -2 -2 -3 -1 1 2 5 6 9 11 12 11 8 8 7 9 7 10 8 9 8 10 7 8 8 8 8 9 7 6 5 5 4 4 4 3 3 3 3 4 3 3 3 3 3 4
-4 -4 -4 -4 -4 -3 -3 -2 -2 -3 -2 1 4 7 8 9 6 7 5 6 7 7 8 7 8 10 9 8 8 7 6 8 11 12 10 7 6 5 5 4 4 4 3 3 3 3 3 3 3 3 3 3 4 4
-4 -5 -5 -4 -3 -3 -2 -3 -3 -2 0 2 5 7 6 7 5 5 7 7 7 8 10 11 11 11 10 10 9 8 10 11 13 12 8 6 5 5 5 4 4 4 4 3 3 3 3 2 3 4 3 4 4 4
-5 -5 -2 -2 -2 -2 -2 -2 -2 -1 1 5 6 4 6 7 6 6 7 7 8 9 12 11 12 13 9 10 10 11 11 12 8 7 6 5 5 5 4 4 4 4 4 4 3 3 3 3 3 3 4 4 4 5
-5 -2 -2 -1 -1 -1 -1 -0 -1 1 3 4 5 4 5 5 5 6 7 7 9 11 9 12 8 10 11 13 12 12 7 6 7 6 5 5 5 5 5 4 4 4 4 3 3 3 4 3 3 3 4 5 5 5
-2 -1 -1 -1 -1 -0 -0 -0 1 4 4 3 3 4 4 4 5 6 7 8 9 10 9 9 12 13 14 11 10 7 6 6 6 5 5 5 5 5 5 4 4 4 4 3 3 3 3 3 3 3 5 5 5 5
-1 -0 -0 -1 0 1 0 2 4 4 4 3 4 3 3 4 5 6 6 7 8 9 10 11 13 11 10 8 7 6 6 5 5 5 4 4 4 4 4 4 4 4 4 4 4 3 3 3 4 5 5 5 5 5
-0 -0 -0 -0 1 1 2 4 5 5 5 4 4 4 4 5 5 6 6 8 9 10 11 8 7 5 7 5 5 5 5 5 6 6 5 4 4 4 4 4 4 4 4 4 3 4 4 3 5 5 5 6 6 6
-0 -0 -0 -0 0 3 4 5 6 5 5 4 5 6 6 7 7 7 8 9 8 7 6 5 5 4 3 4 4 4 5 6 6 5 5 5 4 4 4 4 4 4 4 4 4 4 3 4 5 6 6 6 6 6
-0 -0 -0 0 3 5 3 4 5 5 5 4 6 7 8 7 6 7 7 7 6 7 7 5 4 3 3 3 4 4 5 5 5 5 4 5 5 5 4 4 5 5 4 4 4 3 5 5 6 6 6 6 6 6
1 -0 1 3 4 1 4 3 4 4 4 5 7 6 7 7 6 7 9 7 5 6 5 5 3 3 3 3 4 4 4 5 5 4 5 4 4 4 4 4 4 4 4 4 4 5 5 5 6 6 6 6 6 6
-1 0 2 0 2 2 1 1 2 3 3 4 5 5 5 5 7 7 9 7 5 4 3 3 3 4 5 5 4 4 4 6 6 5 4 4 4 4 4 3 4 4 4 5 4 5 5 6 6 6 6 6 6 6
1 -1 1 1 1 3 3 2 2 2 3 3 5 4 4 6 6 7 8 8 6 6 7 6 6 5 5 5 5 6 6 6 7 6 5 5 6 5 4 4 4 4 5 5 5 5 5 6 6 6 6 6 6 6
1 0 -0 1 1 2 2 2 3 3 2 2 4 3 4 5 5 7 8 9 11 11 10 9 8 7 8 7 6 7 7 7 7 8 7 6 6 6 6 6 6 6 5 5 6 6 6 6 6 6 6 6 6 6
-0 1 1 0 1 2 2 2 3 3 4 3 4 3 5 5 7 6 7 8 11 12 11 10 9 9 10 9 9 9 7 6 5 7 7 6 5 5 5 5 4 5 5 6 6 6 6 6 6 6 6 6 6 5
-1 1 2 -1 -1 -1 -2 0 1 0 1 3 4 4 4 4 5 6 7 8 10 10 10 10 9 9 9 9 9 8 8 8 7 6 6 6 5 5 5 6 6 6 5 5 5 5 5 5 6 6 5 5 5 5
-0 0 -1 -2 -1 -1 -3 -2 -2 -0 2 3 3 3 3 3 4 5 7 8 9 9 10 10 10 9 9 8 8 7 7 7 7 8 7 7 7 6 6 5 5 5 6 5 4 4 4 5 5 6 6 5 5 5
-1 -1 -2 -2 -2 -3 -2 -1 0 2 3 3 3 3 3 4 5 6 7 8 9 10 9 9 9 9 9 9 9 8 7 7 7 7 7 7 7 7 6 6 6 6 6 5 5 5 5 6 6 6 6 6 6 5
-2 -2 -1 -0 -1 -1 -0 1 1 2 3 3 3 4 4 5 5 6 7 8 8 9 9 9 9 10 9 9 9 9 10 9 8 7 7 7 7 7 6 6 5 5 5 5 5 5 5 5 6 6 6 6 6 5
-1 -1 -1 -0 -0 -0 1 1 1 2 2 1 1 2 3 4 6 6 7 8 8 9 9 9 9 9 9 9 9 8 8 8 8 8 7 6 6 6 6 6 5 5 5 4 5 5 5 5 5 6 6 6 6 5
Height
1467 1472 1478 1483 1487 1491 1493 1496 1498 1500 1500 1500 1500 1500 1500 1502 1505 1507 1509 1509 1511 1512 1511 1510 1511 1513 1516 1518 1521 1530 1536 1536 1536 1534 1534 1540 1541 1550 1554 1563 1560 1556 1552 1560 1555 1558 1567 1565 1566 1561 1564 1564 1565 1564
1462 1468 1473 1479 1483 1487 1490 1492 1495 1496 1497 1497 1498 1498 1498 1500 1503 1506 1508 1508 1510 1512 1512 1510 1511 1513 1514 1517 1521 1526 1528 1529 1532 1533 1536 1540 1543 1549 1550 1552 1561 1560 1563 1562 1562 1559 1563 1565 1565 1566 1566 1565 1565 1564
1458 1463 1469 1475 1479 1483 1486 1489 1492 1493 1494 1494 1495 1495 1496 1498 1501 1504 1507 1507 1510 1512 1514 1514 1515 1515 1515 1517 1519 1523 1528 1528 1531 1533 1536 1539 1541 1546 1548 1553 1561 1565 1565 1560 1558 1564 1563 1565 1565 1566 1565 1565 1565 1564
1453 1459 1465 1471 1476 1480 1483 1486 1489 1490 1491 1492 1492 1491 1493 1495 1499 1502 1504 1506 1508 1511 1510 1516 1514 1515 1516 1517 1520 1522 1524 1526 1530 1535 1536 1537 1541 1550 1549 1552 1557 1561 1563 1559 1558 1562 1565 1566 1566 1565 1565 1565 1565 1565
1449 1455 1462 1468 1472 1476 1480 1483 1485 1487 1488 1489 1488 1488 1490 1494 1498 1500 1502 1504 1507 1511 1508 1514 1516 1516 1517 1518 1521 1522 1524 1527 1532 1534 1536 1541 1547 1551 1555 1556 1558 1559 1559 1556 1557 1563 1563 1567 1567 1567 1567 1567 1567 1567
1445 1452 1458 1464 1469 1473 1477 1480 1482 1484 1485 1485 1485 1485 1488 1492 1496 1500 1504 1506 1506 1507 1511 1512 1520 1521 1518 1520 1522 1524 1527 1529 1533 1535 1540 1544 1546 1547 1546 1549 1555 1558 1560 1561 1562 1564 1565 1567 1569 1569 1570 1569 1569 1568
1443 1449 1455 1461 1466 1470 1474 1477 1479 1481 1482 1482 1481 1483 1487 1490 1494 1496 1498 1499 1503 1508 1510 1514 1519 1523 1522 1523 1525 1528 1529 1531 1535 1538 1541 1542 1545 1545 1542 1544 1553 1557 1560 1562 1564 1566 1568 1569 1571 1571 1571 1571 1570 1569
1440 1446 1452 1457 1463 1467 1471 1474 1476 1478 1479 1478 1478 1482 1486 1489 1493 1494 1496 1498 1501 1505 1508 1510 1517 1521 1522 1525 1527 1529 1531 1534 1537 1539 1543 1542 1545 1544 1541 1546 1553 1557 1560 1563 1565 1567 1568 1570 1571 1571 1572 1572 1571 1570
1437 1443 1448 1454 1459 1463 1467 1470 1473 1475 1475 1475 1478 1481 1486 1489 1491 1493 1494 1498 1502 1506 1504 1506 1508 1514 1521 1524 1526 1530 1531 1533 1538 1538 1540 1543 1540 1538 1541 1546 1552 1557 1560 1563 1565 1567 1569 1570 1572 1572 1573 1574 1573 1573
1433 1439 1445 1450 1456 1460 1464 1467 1470 1472 1472 1474 1477 1481 1484 1485 1491 1493 1500 1502 1503 1501 1501 1501 1505 1509 1517 1520 1525 1528 1531 1532 1532 1539 1541 1538 1536 1543 1545 1549 1553 1557 1561 1564 1566 1569 1570 1571 1572 1574 1576 1576 1576 1576
1430 1435 1441 1446 1452 1456 1460 1464 1468 1470 1471 1474 1476 1476 1479 1485 1490 1490 1492 1495 1496 1497 1497 1500 1502 1505 1515 1515 1519 1526 1526 1530 1528 1534 1535 1533 1534 1540 1545 1550 1554 1558 1562 1565 1566 1568 1570 1571 1573 1576 1577 1578 1578 1579
1426 1431 1437 1442 1447 1452 1457 1461 1464 1466 1468 1473 1476 1476 1479 1485 1485 1485 1484 1487 1485 1481 1491 1494 1501 1505 1511 1514 1518 1526 1523 1530 1524 1535 1533 1528 1527 1535 1543 1549 1554 1559 1563 1565 1567 1568 1571 1574 1576 1578 1580 1581 1581 1581
1421 1426 1432 1437 1443 1448 1452 1457 1460 1464 1471 1473 1471 1471 1474 1474 1475 1469 1476 1470 1472 1478 1483 1488 1497 1503 1510 1513 1518 1520 1520 1525 1532 1530 1522 1518 1526 1534 1541 1548 1554 1559 1563 1566 1568 1571 1573 1575 1579 1581 1582 1583 1584 1584
1415 1421 1426 1431 1437 1442 1447 1451 1455 1464 1469 1467 1464 1464 1461 1457 1452 1449 1449 1455 1464 1469 1476 1484 1493 1497 1505 1510 1515 1516 1526 1526 1526 1523 1513 1515 1522 1531 1539 1546 1552 1558 1563 1566 1570 1573 1576 1578 1581 1583 1585 1586 1586 1586
1409 1414 1419 1424 1430 1434 1439 1445 1454 1461 1463 1458 1451 1443 1442 1439 1443 1446 1450 1455 1461 1468 1474 1485 1491 1495 1503 1510 1513 1520 1524 1516 1506 1495 1499 1509 1520 1529 1538 1545 1552 1558 1564 1568 1572 1576 1578 1581 1584 1585 1587 1588 1589 1589
1402 1405 1408 1414 1418 1425 1435 1445 1453 1459 1457 1447 1440 1435 1435 1437 1443 1447 1451 1456 1462 1468 1477 1480 1486 1491 1497 1499 1505 1504 1502 1492 1485 1490 1498 1508 1519 1529 1538 1545 1552 1559 1565 1570 1574 1578 1581 1584 1585 1587 1588 1589 1590 1591
1394 1392 1396 1402 1409 1420 1431 1443 1449 1453 1445 1434 1431 1429 1430 1432 1437 1444 1450 1454 1461 1466 1467 1472 1476 1479 1492 1492 1491 1489 1484 1482 1489 1494 1501 1509 1518 1529 1538 1545 1553 1560 1566 1572 1576 1580 1583 1585 1587 1589 1590 1591 1592 1593
1381 1381 1388 1397 1406 1420 1430 1436 1443 1437 1431 1428 1428 1429 1429 1431 1436 1443 1448 1453 1459 1463 1466 1466 1470 1475 1475 1474 1473 1475 1483 1487 1492 1497 1504 1514 1524 1532 1539 1546 1554 1561 1567 1572 1577 1581 1584 1587 1589 1590 1591 1593 1593 1594
1372 1376 1385 1393 1402 1410 1422 1435 1431 1427 1427 1427 1427 1428 1431 1434 1438 1442 1447 1456 1461 1463 1464 1465 1465 1463 1464 1467 1469 1474 1480 1486 1492 1502 1511 1520 1527 1534 1542 1550 1556 1563 1568 1573 1577 1581 1585 1588 1589 1590 1592 1593 1595 1595
1370 1379 1386 1394 1405 1413 1417 1417 1417 1420 1424 1427 1429 1433 1435 1437 1440 1445 1451 1456 1461 1463 1463 1462 1461 1463 1464 1466 1468 1472 1478 1485 1489 1501 1514 1524 1531 1538 1544 1550 1557 1563 1569 1574 1578 1581 1583 1586 1588 1590 1592 1594 1595 1596
1374 1384 1395 1401 1406 1408 1407 1407 1412 1418 1423 1427 1431 1433 1436 1440 1443 1448 1454 1458 1462 1460 1460 1461 1462 1462 1463 1465 1469 1473 1479 1485 1490 1490 1496 1515 1528 1537 1544 1552 1557 1563 1567 1572 1576 1580 1583 1585 1587 1589 1591 1593 1595 1596
1372 1384 1395 1404 1403 1400 1401 1405 1409 1415 1422 1428 1431 1434 1440 1444 1447 1453 1455 1458 1459 1459 1459 1459 1461 1462 1464 1467 1471 1477 1483 1492 1499 1505 1514 1520 1526 1535 1543 1549 1555 1561 1566 1571 1575 1577 1581 1583 1585 1588 1590 1592 1594 1595
1376 1385 1398 1402 1400 1400 1409 1407 1411 1416 1423 1429 1431 1434 1440 1445 1449 1452 1455 1455 1457 1456 1457 1459 1461 1464 1466 1470 1475 1482 1489 1493 1498 1506 1514 1523 1531 1538 1543 1549 1555 1559 1564 1569 1573 1576 1578 1581 1584 1587 1589 1591 1593 1595
1384 1394 1398 1392 1393 1401 1406 1409 1412 1417 1425 1429 1431 1436 1442 1445 1449 1451 1451 1453 1454 1455 1457 1459 1462 1464 1469 1475 1479 1484 1490 1496 1501 1509 1517 1522 1529 1537 1543 1549 1554 1559 1563 1566 1569 1573 1577 1580 1583 1585 1588 1590 1592 1593
1392 1388 1385 1386 1391 1397 1404 1409 1413 1415 1426 1430 1434 1440 1442 1444 1447 1450 1447 1450 1451 1454 1457 1460 1464 1467 1469 1475 1481 1487 1491 1494 1499 1507 1516 1523 1529 1536 1543 1548 1553 1557 1559 1563 1566 1570 1574 1578 1581 1584 1587 1589 1591 1592
1375 1376 1377 1382 1390 1393 1401 1407 1411 1418 1423 1431 1434 1439 1441 1442 1445 1443 1441 1441 1445 1449 1452 1456 1459 1464 1471 1475 1477 1482 1488 1495 1502 1508 1514 1519 1524 1529 1534 1540 1545 1551 1556 1561 1564 1568 1572 1576 1580 1583 1586 1588 1590 1591
1369 1377 1380 1382 1385 1390 1400 1406 1410 1413 1422 1428 1430 1434 1436 1438 1437 1432 1432 1435 1441 1446 1451 1456 1460 1464 1468 1473 1480 1485 1490 1496 1503 1509 1513 1520 1527 1532 1535 1536 1540 1547 1552 1557 1562 1567 1570 1574 1578 1581 1584 1586 1588 1590
1373 1378 1381 1387 1388 1390 1395 1405 1409 1414 1417 1419 1422 1427 1426 1426 1425 1426 1428 1431 1438 1445 1450 1456 1461 1466 1470 1475 1479 1484 1490 1496 1503 1509 1516 1522 1527 1530 1535 1540 1545 1547 1551 1554 1559 1565 1570 1574 1577 1580 1583 1585 1587 1588
1377 1381 1383 1388 1391 1396 1403 1406 1408 1410 1413 1416 1418 1419 1422 1422 1423 1424 1426 1431 1437 1444 1449 1454 1460 1465 1471 1476 1481 1485 1489 1493 1497 1502 1508 1514 1519 1524 1529 1535 1540 1544 1548 1554 1559 1563 1567 1571 1574 1577 1580 1582 1583 1584
1382 1383 1387 1393 1397 1406 1409 1409 1410 1411 1412 1415 1418 1420 1421 1423 1424 1425 1428 1431 1436 1442 1448 1453 1457 1462 1466 1471 1476 1483 1489 1494 1497 1500 1501 1505 1511 1519 1525 1530 1536 1541 1546 1551 1555 1559 1562 1565 1569 1571 1574 1575 1577 1579
1382 1385 1390 1398 1406 1411 1411 1411 1412 1414 1416 1418 1419 1420 1422 1424 1426 1427 1430 1433 1437 1442 1447 1452 1457 1462 1466 1470 1474 1480 1484 1489 1494 1500 1506 1510 1514 1519 1524 1528 1532 1537 1542 1547 1550 1554 1557 1561 1564 1567 1569 1571 1573 1574
1385 1389 1392 1400 1411 1414 1413 1414 1415 1417 1420 1421 1422 1423 1425 1425 1427 1429 1431 1434 1438 1442 1447 1452 1456 1460 1466 1472 1476 1481 1484 1488 1491 1497 1503 1508 1513 1518 1522 1525 1529 1533 1538 1542 1546 1550 1553 1556 1558 1561 1563 1565 1567 1568
1391 1392 1394 1401 1409 1413 1415 1415 1418 1421 1423 1424 1425 1424 1425 1426 1428 1430 1431 1434 1439 1443 1447 1453 1460 1465 1469 1472 1477 1481 1485 1489 1493 1497 1502 1507 1511 1515 1519 1522 1526 1530 1533 1536 1540 1543 1546 1549 1552 1554 1556 1558 1560 1561
Wind_Speed
27 27 28 26 22 20 18 15 13 11 11 12 10 11 15 10 10 8 6 6 3 1 2 1 5 5 9 12 10 15 8 5 4 3 2 3 2 3 4 2 1 1 0 2 1 3 3 7 4 3 4 2 5 7
28 27 28 26 23 20 17 15 13 12 12 11 10 11 16 9 12 9 7 8 6 1 2 6 6 10 8 7 12 17 2 9 4 3 2 3 3 4 5 3 2 2 1 2 3 3 7 5 3 2 1 4 5 8
28 29 29 26 22 20 17 15 12 12 10 10 11 12 20 10 14 12 10 8 9 6 6 4 3 7 10 12 15 8 3 6 5 5 6 2 4 3 4 3 4 1 2 4 4 6 7 4 2 1 6 5 4 4
27 30 28 24 22 19 17 15 11 10 9 9 11 13 22 11 15 14 15 13 10 3 3 4 6 5 8 10 15 10 4 10 13 7 3 2 3 2 3 5 4 1 8 6 9 9 7 3 5 6 3 6 6 6
30 29 26 23 21 19 18 13 12 11 9 10 13 13 22 11 14 15 16 21 11 2 3 8 8 6 10 10 9 5 11 14 9 4 3 3 6 5 5 4 4 9 8 6 4 7 3 5 6 8 9 9 6 5
27 27 25 23 22 19 15 13 13 11 10 11 14 20 18 12 14 12 4 19 10 9 2 3 4 7 10 12 12 13 13 9 5 4 5 4 5 3 4 3 6 9 6 5 5 6 8 9 9 9 9 9 8 8
27 26 25 24 22 17 14 13 13 10 11 11 14 22 14 14 19 13 5 13 17 11 3 6 6 4 11 10 9 10 8 6 4 4 3 5 6 5 3 3 17 12 9 8 9 11 10 5 6 7 7 8 8 9
26 25 25 23 21 17 15 14 12 10 11 12 16 17 12 13 20 22 8 20 24 8 3 4 4 8 7 8 6 4 4 4 5 4 4 5 6 3 2 15 20 14 11 10 9 5 10 10 8 7 7 6 8 10
26 25 25 22 20 18 17 15 11 10 11 12 18 11 10 13 13 15 7 26 15 4 4 4 8 5 8 5 5 4 3 2 2 3 3 4 3 2 10 27 22 17 12 14 12 10 9 8 8 7 8 9 11 12
25 24 24 22 21 20 17 15 10 10 12 16 12 7 7 15 11 20 17 10 5 5 4 3 6 5 14 9 4 6 2 3 3 3 6 3 2 2 20 22 22 18 14 14 12 10 10 10 10 11 12 12 13 14
24 23 23 22 21 19 17 14 11 11 14 14 8 8 16 27 22 7 7 7 6 6 7 6 10 13 10 6 5 1 4 4 4 4 3 4 3 13 21 21 18 14 15 8 6 10 10 12 15 15 15 16 17 15
24 25 24 25 22 20 18 14 14 16 17 13 2 13 21 11 8 4 4 5 6 6 9 13 15 13 7 5 4 4 2 3 3 9 3 4 4 25 26 22 19 16 13 12 12 16 17 17 17 18 17 16 14 14
25 24 24 25 22 18 17 15 18 24 23 12 4 10 8 7 5 9 8 5 5 12 12 17 16 10 5 4 5 3 4 3 11 3 4 2 21 30 27 24 20 18 17 18 19 20 21 21 20 19 18 16 15 12
26 27 27 26 22 22 20 23 24 25 19 8 8 6 7 5 7 5 9 7 7 14 28 30 13 5 5 4 4 4 3 6 4 4 5 10 32 33 29 26 26 22 21 22 23 24 25 23 21 19 17 14 13 14
25 26 25 26 26 26 26 26 31 26 13 8 8 6 7 5 5 9 11 14 14 32 34 18 8 5 4 4 2 4 5 5 6 5 6 27 37 35 33 29 27 26 26 26 25 23 21 21 19 18 15 14 13 12
25 24 28 29 31 30 28 33 29 30 8 7 7 5 7 8 6 8 12 21 32 35 28 8 5 5 3 4 6 7 6 6 4 6 24 40 39 35 33 30 29 29 28 26 24 23 21 17 17 18 17 14 12 11
20 30 30 29 32 34 37 29 26 12 7 4 4 3 6 7 12 15 21 25 39 33 8 5 6 4 8 4 5 5 4 2 11 22 35 40 42 38 34 35 33 31 30 27 25 22 20 20 18 16 15 12 11 11
32 29 18 29 41 42 41 25 18 9 7 3 3 6 5 8 18 20 16 36 33 21 7 3 8 5 6 6 4 6 7 13 19 31 38 40 38 39 39 38 35 32 29 27 24 23 20 17 15 13 13 12 12 12
32 21 34 51 57 40 16 20 8 6 2 4 8 9 5 11 16 19 25 36 24 11 7 5 3 4 3 4 6 16 22 25 33 35 39 37 41 44 41 38 33 30 28 26 24 20 17 14 14 14 14 13 12 12
32 45 54 60 54 22 9 9 9 5 4 5 8 8 7 8 16 21 35 24 16 6 3 3 2 1 2 5 11 22 27 35 44 42 37 37 39 39 38 36 32 29 26 24 21 20 18 18 16 16 15 15 14 12
50 50 56 62 34 7 4 6 6 6 9 6 14 7 7 14 19 29 18 20 6 3 1 2 2 3 5 9 18 24 33 40 41 48 55 46 42 41 38 31 31 29 27 26 24 21 18 16 19 18 17 16 14 11
46 50 46 46 7 2 5 7 11 10 6 10 7 6 11 15 21 14 14 8 3 2 2 3 5 9 14 18 22 26 33 32 32 37 39 45 45 42 36 33 33 30 28 27 24 24 18 20 21 20 19 16 14 11
54 44 40 11 7 3 5 7 5 4 4 5 12 5 8 7 8 15 3 4 3 5 6 8 13 13 19 23 24 28 30 34 39 41 43 40 38 35 32 33 31 30 29 25 23 23 23 24 22 21 19 17 14 11
55 24 9 10 5 5 6 3 5 6 6 3 3 5 5 6 11 1 3 5 5 9 11 16 19 23 22 23 26 30 33 33 37 38 41 40 38 34 32 31 29 27 26 27 28 27 25 25 24 22 20 17 15 11
8 9 5 6 5 5 4 3 3 3 4 3 4 3 4 5 2 2 4 7 12 14 17 19 19 20 25 26 26 28 30 37 47 44 36 37 35 31 30 27 27 26 32 34 33 29 28 27 24 22 20 18 15 12
4 4 4 3 3 4 3 5 4 4 5 3 3 5 4 3 3 4 5 16 19 23 27 29 28 25 24 26 34 36 36 37 45 42 40 44 46 46 40 38 35 34 36 35 33 31 29 27 24 22 21 18 15 12
5 3 5 6 7 10 6 8 9 5 4 5 5 5 4 4 6 4 11 24 30 28 28 29 28 27 31 32 30 32 34 37 40 39 42 44 42 40 42 45 45 42 41 38 34 31 30 28 25 23 21 18 16 12
6 4 5 5 6 4 6 4 3 4 4 6 10 5 9 7 4 8 10 27 31 31 30 29 27 25 31 34 36 37 37 38 36 36 37 38 38 37 36 34 30 38 40 39 35 30 26 24 23 21 20 18 15 13
5 7 8 5 7 8 6 3 2 3 6 10 2 3 3 3 6 9 18 27 29 31 32 32 29 26 29 31 32 33 35 41 42 41 42 42 41 39 38 38 37 38 39 35 31 27 24 22 22 21 19 18 16 17
4 4 6 5 4 4 3 2 3 7 11 8 5 5 4 5 6 10 23 29 33 34 33 33 32 32 34 37 37 35 35 38 40 42 45 46 45 40 37 36 35 34 35 34 32 31 28 26 26 26 25 24 22 20
6 5 6 6 5 4 7 12 13 11 7 6 6 5 6 6 5 8 21 28 32 34 35 35 33 32 34 36 36 36 37 40 40 38 37 35 35 34 34 34 35 37 37 36 36 34 31 29 28 27 27 27 24 22
5 5 5 4 4 7 8 4 4 5 3 3 4 4 4 4 3 5 18 26 30 33 34 34 34 35 31 30 29 30 28 33 39 38 34 31 28 29 29 32 34 36 36 35 34 33 32 30 29 28 28 27 25 24
7 12 12 9 5 3 3 4 4 3 5 3 4 3 3 3 3 3 14 23 27 31 33 31 26 24 24 24 24 25 25 23 28 30 30 28 26 25 28 28 33 35 36 36 36 35 34 33 32 30 30 28 27 26
Wind_Direction
217 214 211 209 214 220 226 232 244 257 267 272 280 279 230 229 196 217 221 204 162 284 141 150 140 140 143 155 158 153 153 199 169 173 156 131 121 100 111 93 77 83 348 106 200 117 142 172 181 288 67 114 340 334
212 208 206 205 211 217 221 231 244 256 259 270 274 270 224 216 186 213 214 194 185 146 139 139 151 163 156 162 147 164 82 151 144 131 166 132 132 158 144 129 121 164 40 108 359 84 114 140 81 92 7 315 323 337
209 208 203 205 209 213 219 231 245 244 254 266 275 261 218 209 186 205 198 179 159 141 114 113 114 140 157 159 158 164 163 156 141 131 131 106 117 160 159 145 125 134 217 152 164 143 134 133 167 296 302 293 335 30
203 199 200 203 207 210 219 231 236 236 254 275 273 264 207 202 187 204 199 187 168 181 146 78 129 139 155 162 166 162 178 160 139 119 95 102 115 214 128 129 156 174 170 165 117 138 144 104 4 330 59 103 91 63
200 194 198 201 205 208 221 231 226 238 257 274 268 250 204 192 183 207 205 188 174 147 104 126 89 77 146 147 166 140 147 137 135 120 101 92 120 128 121 131 168 179 166 160 148 128 60 74 45 83 96 85 64 45
190 192 198 200 202 214 223 228 228 240 265 276 272 228 204 174 181 190 196 191 187 165 162 115 83 58 116 133 127 128 128 108 95 94 98 110 148 165 156 159 157 169 173 147 138 124 117 105 92 87 84 72 65 66
195 197 199 200 205 214 218 226 236 247 272 272 273 219 193 167 186 185 167 176 192 183 157 126 124 127 120 119 107 107 100 91 91 102 84 133 157 188 150 140 164 160 151 140 129 125 124 130 107 89 82 74 69 66
196 199 199 201 205 211 223 231 238 258 267 271 236 207 170 175 199 209 158 171 168 170 161 130 109 145 153 139 120 105 107 94 48 94 132 159 155 219 154 146 153 150 147 146 153 142 130 124 113 98 86 80 74 66
197 199 199 203 207 215 221 233 242 259 260 252 208 157 144 188 199 212 225 169 168 188 166 158 155 155 158 128 116 112 108 106 122 134 140 194 155 203 155 155 157 154 154 147 140 136 130 119 111 99 91 86 80 72
200 199 201 206 209 217 227 231 245 249 258 213 177 151 182 184 163 136 133 175 206 207 178 142 142 135 162 159 117 139 124 134 170 105 147 241 134 124 161 162 159 159 157 151 144 145 139 125 117 104 94 91 90 86
198 201 204 207 212 222 225 234 239 232 223 192 176 204 152 168 166 172 172 182 173 189 179 139 165 144 155 159 127 139 139 163 193 140 217 184 191 170 164 161 162 164 159 156 141 139 140 132 123 114 104 101 95 90
202 204 208 210 217 223 226 237 222 224 206 164 268 150 152 175 204 186 172 164 203 188 156 151 152 143 132 133 121 155 142 181 170 149 199 208 163 162 163 162 161 160 157 140 131 128 125 122 121 116 110 104 94 83
209 212 217 223 225 226 233 224 216 204 190 219 214 170 179 182 204 184 180 176 165 168 160 154 136 140 122 116 106 160 165 125 136 195 225 177 158 159 159 156 153 150 145 135 128 125 124 121 120 118 111 102 91 80
215 219 222 226 229 227 225 218 206 197 202 232 197 191 215 181 211 193 170 145 142 152 148 147 129 133 124 126 139 139 100 151 197 223 220 162 162 157 156 153 149 147 143 136 132 130 127 125 123 117 107 96 96 92
222 228 233 234 227 226 224 210 195 199 204 232 213 216 196 154 114 134 131 124 143 147 144 133 102 116 107 114 128 126 167 210 222 219 158 157 157 155 153 151 147 144 141 138 137 133 130 127 124 116 109 108 103 88
237 244 235 232 230 228 206 193 192 194 248 231 227 163 149 132 117 135 147 138 148 145 143 139 130 147 144 148 173 204 184 217 194 151 148 150 152 153 151 149 145 143 141 140 139 135 131 128 128 125 122 117 105 90
238 243 240 235 217 189 178 174 170 203 248 240 201 169 140 127 155 157 161 154 154 154 158 151 153 137 123 190 205 193 214 101 138 142 149 151 150 150 148 146 144 144 142 141 139 135 131 127 126 125 124 118 107 96
241 237 191 181 171 159 159 170 181 224 225 214 185 143 139 143 144 149 161 159 160 170 156 145 132 174 185 190 196 169 138 131 139 145 146 148 149 150 149 146 146 145 146 146 144 141 135 133 132 133 132 123 113 103
211 192 170 161 157 148 152 187 224 188 145 121 111 123 124 147 155 161 155 162 168 174 144 156 166 190 191 191 141 143 142 143 140 142 144 149 152 151 150 149 148 150 151 151 149 149 146 143 145 141 138 131 126 116
177 167 162 163 155 155 183 194 166 130 122 124 114 116 118 126 141 149 152 161 172 170 184 198 224 149 164 155 154 153 148 147 142 138 143 150 154 153 154 154 155 156 156 156 155 158 156 154 154 151 146 140 133 126
162 165 165 159 168 235 191 132 101 108 122 98 123 98 96 131 143 150 153 165 184 216 200 189 166 195 179 150 147 150 153 155 157 155 154 154 158 158 158 158 159 160 162 164 164 167 166 163 162 157 153 148 145 141
153 157 159 177 238 207 82 77 114 113 93 127 115 105 117 139 148 157 153 170 173 193 176 154 169 154 141 142 145 149 151 149 150 151 154 156 156 160 163 165 163 165 167 168 170 171 170 173 167 165 160 158 157 156
154 153 169 208 210 114 107 94 89 82 109 136 130 99 130 137 158 159 142 172 178 197 187 168 152 139 139 139 140 145 152 153 150 154 158 158 162 165 165 166 169 168 169 173 175 178 179 175 171 170 168 168 167 167
163 159 214 192 136 117 124 78 96 102 109 96 96 113 136 126 153 139 150 164 172 169 162 156 148 139 138 141 148 154 155 156 156 158 160 162 163 169 170 170 173 174 175 175 180 186 183 181 178 176 177 176 176 177
182 211 179 74 96 106 97 88 79 77 104 117 88 108 141 136 124 182 188 174 172 168 166 161 157 157 150 151 155 160 164 170 167 161 167 171 168 166 170 175 177 181 187 186 188 188 185 185 184 183 182 183 187 188
172 37 63 112 124 112 146 115 135 121 107 95 98 130 151 137 152 217 197 187 181 181 178 173 167 160 164 167 164 170 171 174 176 174 174 180 183 181 178 177 180 190 193 196 195 189 190 189 188 189 189 190 195 198
96 75 66 81 97 113 101 77 115 101 117 150 162 159 147 164 214 213 180 180 187 189 184 179 176 172 172 170 171 172 173 179 183 183 181 186 189 191 190 188 189 189 189 194 196 198 195 192 192 194 197 199 202 206
93 98 119 124 98 88 108 103 127 147 151 159 147 169 171 192 190 165 176 180 186 186 182 181 180 182 181 178 178 177 177 177 180 188 186 187 191 196 197 195 192 197 195 195 195 196 200 201 202 205 207 209 213 220
76 108 104 66 73 58 51 61 92 115 143 167 134 154 155 152 160 165 166 169 174 180 179 176 178 181 183 183 182 185 185 183 184 185 188 191 194 198 201 203 203 201 201 200 197 199 201 203 207 212 217 220 223 230
72 76 95 66 63 66 30 65 112 131 129 133 117 108 104 120 145 158 169 172 174 178 180 180 179 180 181 183 183 185 190 193 195 196 194 198 200 197 196 199 202 204 205 204 203 202 204 208 210 214 218 222 226 233
95 89 80 70 84 67 107 112 109 103 92 85 102 114 123 124 119 157 175 178 179 180 183 184 184 186 187 188 190 189 192 196 200 203 209 211 208 203 202 200 199 202 206 209 210 211 214 217 219 222 226 230 234 239
57 63 118 102 102 115 113 82 72 74 75 75 62 103 116 107 99 147 178 183 185 188 189 192 192 191 192 200 201 204 207 202 202 205 208 212 215 211 209 205 202 200 202 209 214 217 220 225 226 228 232 236 240 243
81 79 90 96 98 104 92 94 76 91 50 60 45 53 64 79 106 127 175 188 193 194 194 195 196 199 205 204 205 210 214 214 215 213 211 209 210 212 213 215 213 210 210 212 216 219 223 227 230 232 235 240 244 247